Погода в Библе

Ливан     34°07′43″N   35°39′34″E
темп.,
°C
ветер,
м/с
пор.,
м/с
влажн.,
%
обл.,
%
осадки,
мм/ч
давл.,
гПа
погр.,
м
10 августа, ср
ср1000:00+23ююз47730 0.1 1008325
03:00+22ю45640 0.1 1007113
06:00+22ююз45670 0.1 1007103
09:00+26юз77624 0.2 10071073
12:00+28зюз78540 0.0 10071201
15:00+28зюз89530 0.0 10061097
18:00+26юз78640 0.0 1006859
21:00+24юз58730 0.0 1007527
11 августа, чт
чт1100:00+23ююз58750 0.0 1006475
03:00+22ююз46700 0.1 1006184
06:00+22ююз47710 0.0 1006200
09:00+27юз77530 0.0 1007836
12:00+28юз88590 0.0 1007952
15:00+28зюз77600 0.0 1007914
18:00+27зюз55630 0.0 1007645
21:00+23ююз22810 0.0 100851
12 августа, пт
пт1200:00+22ююз22780 0.0 100835
03:00+21ю22730 0.0 100823
06:00+21ю22710 0.0 100816
09:00+26з32550 0.0 1008626
12:00+28з53510 0.0 1008889
15:00+28з43520 0.0 1008801
18:00+26з32580 0.0 1008570
21:00+23ююз12720 0.0 100821
13 августа, сб
сб1300:00+22юз22750 0.0 100824
03:00+21ююз33710 0.0 100836
06:00+20ю33670 0.0 100830
09:00+26юз44520 0.0 1008603
12:00+28зюз65510 0.0 1008719
15:00+28зюз65530 0.0 1007739
18:00+25юз56620 0.0 1007501
21:00+22ююз34760 0.0 1007120
14 августа, вс
вс1400:00+21ююз45750 0.0 1007111
03:00+21ююз45720 0.0 100793
06:00+20ююз44580 0.0 100664
09:00+26юз56550 0.0 1007634
12:00+28зюз88570 0.0 1007834
15:00+28юз77600 0.0 1006753
18:00+26юз57690 0.0 1006555
21:00+23ююз35850 0.0 1007149